Year,Month,Day,Hour,Minute,Value (Times are PST for temperature in C)
2009,06,11,00,00,18.70
2009,06,11,00,01,18.70
2009,06,11,00,05,18.70
2009,06,11,00,06,18.80
2009,06,11,00,07,18.80
2009,06,11,00,08,18.80
2009,06,11,00,09,18.80
2009,06,11,00,10,18.80
2009,06,11,00,11,18.80
2009,06,11,00,12,18.80
2009,06,11,00,13,18.80
2009,06,11,00,14,18.80
2009,06,11,00,15,18.80
2009,06,11,00,16,18.80
2009,06,11,00,17,18.80
2009,06,11,00,18,18.80
2009,06,11,00,19,18.80
2009,06,11,00,20,18.80
2009,06,11,00,21,18.80
2009,06,11,00,22,18.70
2009,06,11,00,23,18.70
2009,06,11,00,24,18.70
2009,06,11,00,25,18.70
2009,06,11,00,26,18.70
2009,06,11,00,27,18.70
2009,06,11,00,28,18.70
2009,06,11,00,29,18.70
2009,06,11,00,30,18.60
2009,06,11,00,31,18.60
2009,06,11,00,32,18.60
2009,06,11,00,33,18.60
2009,06,11,00,34,18.60
2009,06,11,00,35,18.50
2009,06,11,00,36,18.50
2009,06,11,00,37,18.50
2009,06,11,00,38,18.40
2009,06,11,00,39,18.40
2009,06,11,00,40,18.30
2009,06,11,00,41,18.30
2009,06,11,00,42,18.30
2009,06,11,00,43,18.30
2009,06,11,00,44,18.20
2009,06,11,00,45,18.20
2009,06,11,00,46,18.20
2009,06,11,00,47,18.20
2009,06,11,00,48,18.10
2009,06,11,00,49,18.10
2009,06,11,00,50,18.00
2009,06,11,00,51,18.00
2009,06,11,00,52,17.90
2009,06,11,00,53,17.90
2009,06,11,00,54,17.90
2009,06,11,00,55,17.80
2009,06,11,00,56,17.80
2009,06,11,00,57,17.70
2009,06,11,00,58,17.70
2009,06,11,00,59,17.70
2009,06,11,01,00,17.70
2009,06,11,01,01,17.60
2009,06,11,01,02,17.60
2009,06,11,01,03,17.60
2009,06,11,01,04,17.60
2009,06,11,01,05,17.50
2009,06,11,01,06,17.50
2009,06,11,01,07,17.40
2009,06,11,01,08,17.40
2009,06,11,01,09,17.40
2009,06,11,01,10,17.40
2009,06,11,01,11,17.40
2009,06,11,01,12,17.40
2009,06,11,01,13,17.40
2009,06,11,01,14,17.30
2009,06,11,01,15,17.30
2009,06,11,01,16,17.30
2009,06,11,01,17,17.30
2009,06,11,01,18,17.30
2009,06,11,01,19,17.30
2009,06,11,01,20,17.30
2009,06,11,01,21,17.20
2009,06,11,01,22,17.20
2009,06,11,01,23,17.20
2009,06,11,01,24,17.20
2009,06,11,01,25,17.20
2009,06,11,01,26,17.10
2009,06,11,01,27,17.10
2009,06,11,01,28,17.10
2009,06,11,01,29,17.10
2009,06,11,01,30,17.00
2009,06,11,01,31,17.00
2009,06,11,01,32,16.90
2009,06,11,01,33,16.90
2009,06,11,01,34,16.90
2009,06,11,01,35,16.80
2009,06,11,01,36,16.80
2009,06,11,01,37,16.80
2009,06,11,01,38,16.70
2009,06,11,01,39,16.70
2009,06,11,01,40,16.70
2009,06,11,01,41,16.60
2009,06,11,01,42,16.60
2009,06,11,01,43,16.50
2009,06,11,01,44,16.50
2009,06,11,01,45,16.40
2009,06,11,01,46,16.40
2009,06,11,01,47,16.30
2009,06,11,01,48,16.30
2009,06,11,01,49,16.20
2009,06,11,01,50,16.20
2009,06,11,01,51,16.20
2009,06,11,01,52,16.10
2009,06,11,01,53,16.10
2009,06,11,01,54,16.00
2009,06,11,01,55,16.00
2009,06,11,01,56,15.90
2009,06,11,01,57,15.90
2009,06,11,01,58,15.80
2009,06,11,01,59,15.80
2009,06,11,02,00,15.80
2009,06,11,02,01,15.70
2009,06,11,02,02,15.70
2009,06,11,02,03,15.70
2009,06,11,02,04,15.70
2009,06,11,02,05,15.70
2009,06,11,02,06,15.70
2009,06,11,02,07,15.60
2009,06,11,02,08,15.60
2009,06,11,02,09,15.60
2009,06,11,02,10,15.60
2009,06,11,02,11,15.60
2009,06,11,02,12,15.50
2009,06,11,02,13,15.50
2009,06,11,02,14,15.50
2009,06,11,02,15,15.40
2009,06,11,02,16,15.40
2009,06,11,02,17,15.40
2009,06,11,02,18,15.40
2009,06,11,02,19,15.40
2009,06,11,02,20,15.30
2009,06,11,02,21,15.40
2009,06,11,02,22,15.40
2009,06,11,02,23,15.40
2009,06,11,02,24,15.40
2009,06,11,02,25,15.40
2009,06,11,02,26,15.40
2009,06,11,02,27,15.40
2009,06,11,02,28,15.40
2009,06,11,02,29,15.40
2009,06,11,02,30,15.40
2009,06,11,02,31,15.40
2009,06,11,02,32,15.40
2009,06,11,02,33,15.40
2009,06,11,02,34,15.40
2009,06,11,02,35,15.40
2009,06,11,02,36,15.30
2009,06,11,02,37,15.30
2009,06,11,02,38,15.30
2009,06,11,02,39,15.30
2009,06,11,02,40,15.30
2009,06,11,02,41,15.30
2009,06,11,02,42,15.20
2009,06,11,02,43,15.20
2009,06,11,02,44,15.10
2009,06,11,02,45,15.00
2009,06,11,02,46,15.00
2009,06,11,02,47,15.00
2009,06,11,02,48,15.00
2009,06,11,02,49,15.00
2009,06,11,02,50,15.00
2009,06,11,02,51,15.00
2009,06,11,02,52,15.00
2009,06,11,02,53,15.00
2009,06,11,02,54,15.00
2009,06,11,02,55,15.00
2009,06,11,02,56,15.00
2009,06,11,02,57,15.00
2009,06,11,02,58,15.00
2009,06,11,02,59,15.00
2009,06,11,03,00,15.00
2009,06,11,03,01,15.00
2009,06,11,03,02,15.00
2009,06,11,03,03,15.00
2009,06,11,03,04,15.00
2009,06,11,03,05,15.00
2009,06,11,03,06,15.00
2009,06,11,03,07,15.00
2009,06,11,03,08,15.00
2009,06,11,03,09,15.00
2009,06,11,03,10,15.00
2009,06,11,03,11,15.00
2009,06,11,03,12,15.00
2009,06,11,03,13,15.00
2009,06,11,03,14,15.00
2009,06,11,03,15,15.00
2009,06,11,03,16,15.00
2009,06,11,03,17,15.00
2009,06,11,03,18,15.00
2009,06,11,03,19,15.00
2009,06,11,03,20,15.00
2009,06,11,03,21,14.90
2009,06,11,03,22,14.90
2009,06,11,03,23,14.80
2009,06,11,03,24,14.80
2009,06,11,03,25,14.80
2009,06,11,03,26,14.70
2009,06,11,03,27,14.70
2009,06,11,03,28,14.70
2009,06,11,03,29,14.60
2009,06,11,03,30,14.60
2009,06,11,03,31,14.60
2009,06,11,03,32,14.60
2009,06,11,03,33,14.60
2009,06,11,03,34,14.50
2009,06,11,03,35,14.50
2009,06,11,03,36,14.50
2009,06,11,03,37,14.50
2009,06,11,03,38,14.50
2009,06,11,03,39,14.50
2009,06,11,03,40,14.40
2009,06,11,03,41,14.40
2009,06,11,03,42,14.40
2009,06,11,03,43,14.40
2009,06,11,03,44,14.40
2009,06,11,03,45,14.40
2009,06,11,03,46,14.40
2009,06,11,03,47,14.40
2009,06,11,03,48,14.40
2009,06,11,03,49,14.40
2009,06,11,03,50,14.40
2009,06,11,03,51,14.40
2009,06,11,03,52,14.40
2009,06,11,03,53,14.40
2009,06,11,03,54,14.50
2009,06,11,03,55,14.50
2009,06,11,03,56,14.50
2009,06,11,03,57,14.50
2009,06,11,03,58,14.50
2009,06,11,03,59,14.50
2009,06,11,04,00,14.50
2009,06,11,04,01,14.50
2009,06,11,04,02,14.50
2009,06,11,04,03,14.50
2009,06,11,04,04,14.50
2009,06,11,04,05,14.40
2009,06,11,04,06,14.40
2009,06,11,04,07,14.40
2009,06,11,04,08,14.50
2009,06,11,04,09,14.50
2009,06,11,04,10,14.40
2009,06,11,04,11,14.50
2009,06,11,04,12,14.50
2009,06,11,04,13,14.50
2009,06,11,04,14,14.50
2009,06,11,04,15,14.50
2009,06,11,04,16,14.50
2009,06,11,04,17,14.50
2009,06,11,04,18,14.60
2009,06,11,04,19,14.60
2009,06,11,04,20,14.60
2009,06,11,04,21,14.60
2009,06,11,04,22,14.60
2009,06,11,04,23,14.50
2009,06,11,04,24,14.50
2009,06,11,04,25,14.50
2009,06,11,04,26,14.50
2009,06,11,04,27,14.40
2009,06,11,04,28,14.40
2009,06,11,04,29,14.40
2009,06,11,04,30,14.40
2009,06,11,04,31,14.40
2009,06,11,04,32,14.30
2009,06,11,04,33,14.30
2009,06,11,04,34,14.30
2009,06,11,04,35,14.30
2009,06,11,04,36,14.30
2009,06,11,04,37,14.30
2009,06,11,04,38,14.30
2009,06,11,04,39,14.30
2009,06,11,04,40,14.30
2009,06,11,04,41,14.30
2009,06,11,04,42,14.30
2009,06,11,04,43,14.30
2009,06,11,04,44,14.30
2009,06,11,04,45,14.30
2009,06,11,04,46,14.30
2009,06,11,04,47,14.30
2009,06,11,04,48,14.30
2009,06,11,04,49,14.30
2009,06,11,04,50,14.20
2009,06,11,04,51,14.20
2009,06,11,04,52,14.20
2009,06,11,04,53,14.20
2009,06,11,04,54,14.20
2009,06,11,04,55,14.20
2009,06,11,04,56,14.20
2009,06,11,04,57,14.20
2009,06,11,04,58,14.20
2009,06,11,04,59,14.20
2009,06,11,05,00,14.30
2009,06,11,05,01,14.30
2009,06,11,05,02,14.30
2009,06,11,05,03,14.20
2009,06,11,05,04,14.20
2009,06,11,05,05,14.20
2009,06,11,05,06,14.20
2009,06,11,05,07,14.20
2009,06,11,05,08,14.20
2009,06,11,05,09,14.20
2009,06,11,05,10,14.20
2009,06,11,05,11,14.20
2009,06,11,05,12,14.20
2009,06,11,05,13,14.20
2009,06,11,05,14,14.20
2009,06,11,05,15,14.20
2009,06,11,05,16,14.20
2009,06,11,05,17,14.20
2009,06,11,05,18,14.20
2009,06,11,05,19,14.20
2009,06,11,05,20,14.20
2009,06,11,05,21,14.20
2009,06,11,05,22,14.20
2009,06,11,05,23,14.20
2009,06,11,05,24,14.10
2009,06,11,05,25,14.10
2009,06,11,05,26,14.10
2009,06,11,05,27,14.10
2009,06,11,05,28,14.10
2009,06,11,05,29,14.10
2009,06,11,05,30,14.10
2009,06,11,05,31,14.10
2009,06,11,05,32,14.10
2009,06,11,05,33,14.10
2009,06,11,05,34,14.10
2009,06,11,05,35,14.10
2009,06,11,05,36,14.10
2009,06,11,05,37,14.10
2009,06,11,05,38,14.10
2009,06,11,05,39,14.10
2009,06,11,05,40,14.10
2009,06,11,05,41,14.10
2009,06,11,05,42,14.10
2009,06,11,05,43,14.10
2009,06,11,05,44,14.10
2009,06,11,05,45,14.10
2009,06,11,05,46,14.10
2009,06,11,05,47,14.00
2009,06,11,05,48,14.00
2009,06,11,05,49,14.00
2009,06,11,05,50,13.90
2009,06,11,05,51,13.90
2009,06,11,05,52,13.90
2009,06,11,05,53,13.90
2009,06,11,05,54,13.90
2009,06,11,05,55,13.80
2009,06,11,05,56,13.80
2009,06,11,05,57,13.80
2009,06,11,05,58,13.80
2009,06,11,05,59,13.80
2009,06,11,06,00,13.80
2009,06,11,06,01,13.80
2009,06,11,06,02,13.80
2009,06,11,06,03,13.70
2009,06,11,06,04,13.70
2009,06,11,06,05,13.70
2009,06,11,06,06,13.80
2009,06,11,06,07,13.80
2009,06,11,06,08,13.80
2009,06,11,06,09,13.80
2009,06,11,06,10,13.80
2009,06,11,06,11,13.80
2009,06,11,06,12,13.80
2009,06,11,06,13,13.80
2009,06,11,06,14,13.80
2009,06,11,06,15,13.80
2009,06,11,06,16,13.80
2009,06,11,06,17,13.80
2009,06,11,06,18,13.80
2009,06,11,06,19,13.80
2009,06,11,06,20,13.80
2009,06,11,06,21,13.80
2009,06,11,06,22,13.80
2009,06,11,06,23,13.80
2009,06,11,06,24,13.80
2009,06,11,06,25,13.80
2009,06,11,06,26,13.80
2009,06,11,06,27,13.80
2009,06,11,06,28,13.80
2009,06,11,06,29,13.80
2009,06,11,06,30,13.80
2009,06,11,06,31,13.90
2009,06,11,06,32,13.90
2009,06,11,06,33,13.90
2009,06,11,06,34,13.90
2009,06,11,06,35,13.90
2009,06,11,06,36,13.90
2009,06,11,06,37,14.00
2009,06,11,06,38,14.00
2009,06,11,06,39,14.10
2009,06,11,06,40,14.10
2009,06,11,06,41,14.10
2009,06,11,06,42,14.20
2009,06,11,06,43,14.20
2009,06,11,06,44,14.30
2009,06,11,06,45,14.30
2009,06,11,06,46,14.40
2009,06,11,06,47,14.40
2009,06,11,06,48,14.50
2009,06,11,06,49,14.60
2009,06,11,06,50,14.60
2009,06,11,06,51,14.70
2009,06,11,06,52,14.80
2009,06,11,06,53,14.80
2009,06,11,06,54,14.90
2009,06,11,06,55,15.00
2009,06,11,06,56,15.00
2009,06,11,06,57,15.00
2009,06,11,06,58,15.00
2009,06,11,06,59,15.00
2009,06,11,07,00,15.20
2009,06,11,07,01,15.30
2009,06,11,07,02,15.40
2009,06,11,07,03,15.50
2009,06,11,07,04,15.60
2009,06,11,07,05,15.70
2009,06,11,07,06,15.80
2009,06,11,07,07,15.90
2009,06,11,07,08,16.00
2009,06,11,07,09,16.10
2009,06,11,07,10,16.20
2009,06,11,07,11,16.20
2009,06,11,07,12,16.30
2009,06,11,07,13,16.40
2009,06,11,07,14,16.50
2009,06,11,07,15,16.60
2009,06,11,07,16,16.70
2009,06,11,07,17,16.70
2009,06,11,07,18,16.80
2009,06,11,07,19,16.80
2009,06,11,07,20,16.90
2009,06,11,07,21,16.90
2009,06,11,07,22,17.00
2009,06,11,07,23,17.00
2009,06,11,07,24,17.10
2009,06,11,07,25,17.10
2009,06,11,07,26,17.10
2009,06,11,07,27,17.20
2009,06,11,07,28,17.20
2009,06,11,07,29,17.30
2009,06,11,07,30,17.30
2009,06,11,07,31,17.40
2009,06,11,07,32,17.40
2009,06,11,07,33,17.40
2009,06,11,07,34,17.40
2009,06,11,07,35,17.30
2009,06,11,07,36,17.30
2009,06,11,07,37,17.30
2009,06,11,07,38,17.20
2009,06,11,07,39,17.20
2009,06,11,07,40,17.30
2009,06,11,07,41,17.30
2009,06,11,07,42,17.30
2009,06,11,07,43,17.30
2009,06,11,07,44,17.30
2009,06,11,07,45,17.40
2009,06,11,07,46,17.40
2009,06,11,07,47,17.40
2009,06,11,07,48,17.40
2009,06,11,07,49,17.50
2009,06,11,07,50,17.50
2009,06,11,07,51,17.60
2009,06,11,07,52,17.60
2009,06,11,07,53,17.70
2009,06,11,07,54,17.80
2009,06,11,07,55,17.80
2009,06,11,07,56,17.80
2009,06,11,07,57,17.80
2009,06,11,07,58,17.80
2009,06,11,07,59,17.90
2009,06,11,08,00,18.00
2009,06,11,08,01,18.00
2009,06,11,08,02,18.00
2009,06,11,08,03,17.90
2009,06,11,08,04,17.90
2009,06,11,08,05,17.90
2009,06,11,08,06,17.90
2009,06,11,08,07,17.90
2009,06,11,08,08,17.90
2009,06,11,08,09,17.90
2009,06,11,08,10,17.90
2009,06,11,08,11,17.90
2009,06,11,08,12,17.80
2009,06,11,08,13,17.80
2009,06,11,08,14,17.90
2009,06,11,08,15,17.80
2009,06,11,08,16,17.90
2009,06,11,08,17,17.90
2009,06,11,08,18,17.90
2009,06,11,08,19,17.90
2009,06,11,08,20,17.90
2009,06,11,08,21,18.00
2009,06,11,08,22,18.00
2009,06,11,08,23,17.90
2009,06,11,08,24,17.90
2009,06,11,08,25,17.90
2009,06,11,08,26,17.90
2009,06,11,08,27,18.00
2009,06,11,08,28,18.00
2009,06,11,08,29,17.90
2009,06,11,08,30,17.90
2009,06,11,08,31,17.90
2009,06,11,08,32,17.90
2009,06,11,08,33,18.00
2009,06,11,08,34,18.00
2009,06,11,08,35,18.00
2009,06,11,08,36,18.10
2009,06,11,08,37,18.00
2009,06,11,08,38,18.00
2009,06,11,08,39,18.00
2009,06,11,08,40,17.90
2009,06,11,08,41,17.80
2009,06,11,08,42,17.80
2009,06,11,08,43,17.80
2009,06,11,08,44,17.80
2009,06,11,08,45,17.80
2009,06,11,08,46,17.90
2009,06,11,08,47,17.90
2009,06,11,08,48,17.90
2009,06,11,08,49,17.90
2009,06,11,08,50,17.80
2009,06,11,08,51,17.90
2009,06,11,08,52,17.90
2009,06,11,08,53,17.80
2009,06,11,08,54,17.70
2009,06,11,08,55,17.60
2009,06,11,08,56,17.60
2009,06,11,08,57,17.60
2009,06,11,08,58,17.60
2009,06,11,08,59,17.70
2009,06,11,09,00,17.70
2009,06,11,09,01,17.70
2009,06,11,09,02,17.80
2009,06,11,09,03,17.80
2009,06,11,09,04,17.80
2009,06,11,09,05,17.90
2009,06,11,09,06,17.90
2009,06,11,09,07,18.00
2009,06,11,09,08,18.10
2009,06,11,09,09,18.10
2009,06,11,09,10,18.20
2009,06,11,09,11,18.30
2009,06,11,09,12,18.40
2009,06,11,09,13,18.20
2009,06,11,09,14,18.10
2009,06,11,09,15,17.90
2009,06,11,09,16,17.70
2009,06,11,09,17,17.60
2009,06,11,09,18,17.50
2009,06,11,09,19,17.50
2009,06,11,09,20,17.50
2009,06,11,09,21,17.50
2009,06,11,09,22,17.60
2009,06,11,09,23,17.70
2009,06,11,09,24,17.80
2009,06,11,09,25,17.90
2009,06,11,09,26,17.90
2009,06,11,09,27,18.00
2009,06,11,09,28,18.00
2009,06,11,09,29,17.90
2009,06,11,09,30,17.80
2009,06,11,09,31,17.60
2009,06,11,09,32,17.50
2009,06,11,09,33,17.40
2009,06,11,09,34,17.40
2009,06,11,09,35,17.40
2009,06,11,09,36,17.40
2009,06,11,09,37,17.40
2009,06,11,09,38,17.40
2009,06,11,09,39,17.40
2009,06,11,09,40,17.50
2009,06,11,09,41,17.60
2009,06,11,09,42,17.60
2009,06,11,09,43,17.70
2009,06,11,09,44,17.70
2009,06,11,09,45,17.70
2009,06,11,09,46,17.70
2009,06,11,09,47,17.70
2009,06,11,09,48,17.70
2009,06,11,09,49,17.70
2009,06,11,09,50,17.70
2009,06,11,09,51,17.70
2009,06,11,09,52,17.70
2009,06,11,09,53,17.70
2009,06,11,09,54,17.70
2009,06,11,09,55,17.70
2009,06,11,09,56,17.70
2009,06,11,09,57,17.70
2009,06,11,09,58,17.70
2009,06,11,09,59,17.60
2009,06,11,10,00,17.70
2009,06,11,10,01,17.60
2009,06,11,10,02,17.60
2009,06,11,10,03,17.60
2009,06,11,10,04,17.60
2009,06,11,10,05,17.70
2009,06,11,10,06,17.70
2009,06,11,10,07,17.80
2009,06,11,10,08,17.80
2009,06,11,10,09,17.80
2009,06,11,10,10,17.80
2009,06,11,10,11,17.90
2009,06,11,10,12,17.90
2009,06,11,10,13,17.80
2009,06,11,10,14,17.80
2009,06,11,10,15,17.80
2009,06,11,10,16,17.80
2009,06,11,10,17,17.90
2009,06,11,10,18,17.80
2009,06,11,10,19,17.80
2009,06,11,10,20,17.80
2009,06,11,10,21,17.70
2009,06,11,10,22,17.60
2009,06,11,10,23,17.60
2009,06,11,10,24,17.60
2009,06,11,10,25,17.60
2009,06,11,10,26,17.50
2009,06,11,10,27,17.40
2009,06,11,10,28,17.50
2009,06,11,10,29,17.50
2009,06,11,10,30,17.60
2009,06,11,10,31,17.60
2009,06,11,10,32,17.50
2009,06,11,10,33,17.50
2009,06,11,10,34,17.50
2009,06,11,10,35,17.40
2009,06,11,10,36,17.40
2009,06,11,10,37,17.30
2009,06,11,10,38,17.30
2009,06,11,10,39,17.20
2009,06,11,10,40,17.30
2009,06,11,10,41,17.30
2009,06,11,10,42,17.30
2009,06,11,10,43,17.20
2009,06,11,10,44,17.20
2009,06,11,10,45,17.20
2009,06,11,10,46,17.20
2009,06,11,10,47,17.30
2009,06,11,10,48,17.30
2009,06,11,10,49,17.30
2009,06,11,10,50,17.30
2009,06,11,10,51,17.20
2009,06,11,10,52,17.20
2009,06,11,10,53,17.20
2009,06,11,10,54,17.20
2009,06,11,10,55,17.20
2009,06,11,10,56,17.30
2009,06,11,10,57,17.40
2009,06,11,10,58,17.60
2009,06,11,10,59,17.70
2009,06,11,11,00,17.80
2009,06,11,11,01,17.80
2009,06,11,11,02,17.90
2009,06,11,11,03,17.80
2009,06,11,11,04,17.80
2009,06,11,11,05,17.80
2009,06,11,11,06,17.80
2009,06,11,11,07,17.80
2009,06,11,11,08,17.80
2009,06,11,11,09,17.80
2009,06,11,11,10,17.90
2009,06,11,11,11,17.80
2009,06,11,11,12,17.80
2009,06,11,11,13,17.70
2009,06,11,11,14,17.70
2009,06,11,11,15,17.70
2009,06,11,11,16,17.70
2009,06,11,11,17,17.70
2009,06,11,11,18,17.70
2009,06,11,11,19,17.70
2009,06,11,11,20,17.80
2009,06,11,11,21,17.90
2009,06,11,11,22,17.90
2009,06,11,11,23,17.90
2009,06,11,11,24,17.80
2009,06,11,11,25,17.90
2009,06,11,11,26,18.00
2009,06,11,11,27,18.10
2009,06,11,11,28,18.20
2009,06,11,11,29,18.20
2009,06,11,11,30,18.20
2009,06,11,11,31,18.20
2009,06,11,11,32,18.10
2009,06,11,11,33,18.10
2009,06,11,11,34,18.00
2009,06,11,11,35,17.90
2009,06,11,11,36,18.00
2009,06,11,11,37,18.10
2009,06,11,11,38,18.00
2009,06,11,11,39,17.90
2009,06,11,11,40,18.00
2009,06,11,11,41,18.00
2009,06,11,11,42,18.20
2009,06,11,11,43,18.30
2009,06,11,11,44,18.30
2009,06,11,11,45,18.30
2009,06,11,11,46,18.20
2009,06,11,11,47,18.30
2009,06,11,11,48,18.40
2009,06,11,11,49,18.40
2009,06,11,11,50,18.40
2009,06,11,11,51,18.40
2009,06,11,11,52,18.20
2009,06,11,11,53,18.10
2009,06,11,11,54,18.00
2009,06,11,11,55,17.90
2009,06,11,11,56,17.80
2009,06,11,11,57,17.70
2009,06,11,11,58,17.70
2009,06,11,11,59,17.70
2009,06,11,12,00,17.70
2009,06,11,12,01,17.70
2009,06,11,12,02,17.70
2009,06,11,12,03,17.70
2009,06,11,12,04,17.70
2009,06,11,12,05,17.70
2009,06,11,12,06,17.70
2009,06,11,12,07,17.70
2009,06,11,12,08,17.80
2009,06,11,12,09,17.90
2009,06,11,12,10,18.00
2009,06,11,12,11,18.20
2009,06,11,12,12,18.20
2009,06,11,12,13,18.30
2009,06,11,12,14,18.20
2009,06,11,12,15,18.20
2009,06,11,12,16,18.10
2009,06,11,12,17,18.10
2009,06,11,12,18,18.10
2009,06,11,12,19,18.10
2009,06,11,12,20,18.10
2009,06,11,12,21,18.10
2009,06,11,12,22,18.10
2009,06,11,12,23,18.00
2009,06,11,12,24,18.00
2009,06,11,12,25,18.00
2009,06,11,12,26,17.90
2009,06,11,12,27,17.80
2009,06,11,12,28,17.90
2009,06,11,12,29,17.90
2009,06,11,12,30,18.00
2009,06,11,12,31,18.00
2009,06,11,12,32,18.20
2009,06,11,12,33,18.20
2009,06,11,12,34,18.20
2009,06,11,12,35,18.20
2009,06,11,12,36,18.30
2009,06,11,12,37,18.40
2009,06,11,12,38,18.50
2009,06,11,12,39,18.60
2009,06,11,12,40,18.50
2009,06,11,12,41,18.50
2009,06,11,12,42,18.40
2009,06,11,12,43,18.40
2009,06,11,12,44,18.30
2009,06,11,12,45,18.30
2009,06,11,12,46,18.30
2009,06,11,12,47,18.30
2009,06,11,12,48,18.30
2009,06,11,12,49,18.30
2009,06,11,12,50,18.20
2009,06,11,12,51,18.10
2009,06,11,12,52,18.10
2009,06,11,12,53,18.10
2009,06,11,12,54,18.20
2009,06,11,12,55,18.30
2009,06,11,12,56,18.40
2009,06,11,12,57,18.40
2009,06,11,12,58,18.30
2009,06,11,12,59,18.40
2009,06,11,13,00,18.30
2009,06,11,13,01,18.40
2009,06,11,13,02,18.50
2009,06,11,13,03,18.60
2009,06,11,13,04,18.60
2009,06,11,13,05,18.60
2009,06,11,13,06,18.50
2009,06,11,13,07,18.40
2009,06,11,13,08,18.40
2009,06,11,13,09,18.30
2009,06,11,13,10,18.30
2009,06,11,13,11,18.30
2009,06,11,13,12,18.30
2009,06,11,13,13,18.30
2009,06,11,13,14,18.40
2009,06,11,13,15,18.50
2009,06,11,13,16,18.50
2009,06,11,13,17,18.60
2009,06,11,13,18,18.60
2009,06,11,13,19,18.60
2009,06,11,13,20,18.60
2009,06,11,13,21,18.60
2009,06,11,13,22,18.50
2009,06,11,13,23,18.40
2009,06,11,13,24,18.30
2009,06,11,13,25,18.40
2009,06,11,13,26,18.50
2009,06,11,13,27,18.60
2009,06,11,13,28,18.60
2009,06,11,13,29,18.60
2009,06,11,13,30,18.60
2009,06,11,13,31,18.70
2009,06,11,13,32,18.70
2009,06,11,13,33,18.70
2009,06,11,13,34,18.70
2009,06,11,13,35,18.70
2009,06,11,13,36,18.80
2009,06,11,13,37,18.80
2009,06,11,13,38,18.80
2009,06,11,13,39,18.80
2009,06,11,13,40,18.80
2009,06,11,13,41,18.90
2009,06,11,13,42,18.90
2009,06,11,13,43,19.00
2009,06,11,13,44,19.10
2009,06,11,13,45,19.00
2009,06,11,13,46,18.90
2009,06,11,13,47,18.90
2009,06,11,13,48,18.80
2009,06,11,13,49,18.80
2009,06,11,13,50,18.90
2009,06,11,13,51,18.90
2009,06,11,13,52,19.10
2009,06,11,13,53,19.20
2009,06,11,13,54,19.30
2009,06,11,13,55,19.20
2009,06,11,13,56,19.20
2009,06,11,13,57,19.10
2009,06,11,13,58,19.00
2009,06,11,13,59,18.90
2009,06,11,14,00,18.80
2009,06,11,14,01,18.80
2009,06,11,14,02,18.80
2009,06,11,14,03,18.90
2009,06,11,14,04,18.90
2009,06,11,14,05,18.90
2009,06,11,14,06,18.80
2009,06,11,14,07,18.90
2009,06,11,14,08,18.90
2009,06,11,14,09,18.90
2009,06,11,14,10,18.90
2009,06,11,14,11,18.80
2009,06,11,14,12,18.90
2009,06,11,14,13,19.00
2009,06,11,14,14,19.10
2009,06,11,14,15,19.10
2009,06,11,14,16,19.20
2009,06,11,14,17,19.30
2009,06,11,14,18,19.30
2009,06,11,14,19,19.30
2009,06,11,14,20,19.30
2009,06,11,14,21,19.30
2009,06,11,14,22,19.40
2009,06,11,14,23,19.50
2009,06,11,14,24,19.60
2009,06,11,14,25,19.60
2009,06,11,14,26,19.60
2009,06,11,14,27,19.70
2009,06,11,14,28,19.70
2009,06,11,14,29,19.80
2009,06,11,14,30,20.00
2009,06,11,14,31,20.00
2009,06,11,14,32,20.10
2009,06,11,14,33,20.10
2009,06,11,14,34,20.00
2009,06,11,14,35,19.90
2009,06,11,14,36,19.90
2009,06,11,14,37,19.90
2009,06,11,14,38,19.80
2009,06,11,14,39,19.80
2009,06,11,14,40,19.80
2009,06,11,14,41,19.90
2009,06,11,14,42,20.00
2009,06,11,14,43,20.10
2009,06,11,14,44,20.20
2009,06,11,14,45,20.20
2009,06,11,14,46,20.20
2009,06,11,14,47,20.10
2009,06,11,14,48,20.20
2009,06,11,14,49,20.20
2009,06,11,14,50,20.10
2009,06,11,14,51,20.10
2009,06,11,14,52,20.10
2009,06,11,14,53,20.10
2009,06,11,14,54,20.00
2009,06,11,14,55,19.90
2009,06,11,14,56,19.90
2009,06,11,14,57,19.90
2009,06,11,14,58,20.00
2009,06,11,14,59,20.10
2009,06,11,15,00,20.20
2009,06,11,15,01,20.30
2009,06,11,15,02,20.30
2009,06,11,15,03,20.40
2009,06,11,15,04,20.50
2009,06,11,15,05,20.60
2009,06,11,15,06,20.60
2009,06,11,15,07,20.60
2009,06,11,15,08,20.70
2009,06,11,15,09,20.70
2009,06,11,15,10,20.80
2009,06,11,15,11,20.80
2009,06,11,15,12,20.80
2009,06,11,15,13,20.80
2009,06,11,15,14,20.80
2009,06,11,15,15,20.90
2009,06,11,15,16,21.20
2009,06,11,15,17,21.40
2009,06,11,15,18,21.60
2009,06,11,15,19,21.70
2009,06,11,15,20,21.80
2009,06,11,15,21,21.70
2009,06,11,15,22,21.50
2009,06,11,15,23,21.40
2009,06,11,15,24,21.40
2009,06,11,15,25,21.30
2009,06,11,15,26,21.30
2009,06,11,15,27,21.30
2009,06,11,15,28,21.30
2009,06,11,15,29,21.30
2009,06,11,15,30,21.30
2009,06,11,15,31,21.40
2009,06,11,15,32,21.50
2009,06,11,15,33,21.60
2009,06,11,15,34,21.70
2009,06,11,15,35,21.70
2009,06,11,15,36,21.70
2009,06,11,15,37,21.60
2009,06,11,15,38,21.40
2009,06,11,15,39,21.30
2009,06,11,15,40,21.30
2009,06,11,15,41,21.30
2009,06,11,15,42,21.30
2009,06,11,15,43,21.30
2009,06,11,15,44,21.30
2009,06,11,15,45,21.20
2009,06,11,15,46,21.10
2009,06,11,15,47,21.10
2009,06,11,15,48,21.10
2009,06,11,15,49,21.10
2009,06,11,15,50,21.20
2009,06,11,15,51,21.30
2009,06,11,15,52,21.40
2009,06,11,15,53,21.40
2009,06,11,15,54,21.50
2009,06,11,15,55,21.60
2009,06,11,15,56,21.60
2009,06,11,15,57,21.70
2009,06,11,15,58,21.80
2009,06,11,15,59,21.80
2009,06,11,16,00,21.80
2009,06,11,16,01,21.60
2009,06,11,16,02,21.50
2009,06,11,16,03,21.40
2009,06,11,16,04,21.40
2009,06,11,16,05,21.60
2009,06,11,16,06,21.70
2009,06,11,16,07,21.90
2009,06,11,16,08,22.00
2009,06,11,16,09,22.10
2009,06,11,16,10,22.10
2009,06,11,16,11,22.00
2009,06,11,16,12,22.00
2009,06,11,16,13,21.90
2009,06,11,16,14,22.00
2009,06,11,16,15,22.20
2009,06,11,16,16,22.30
2009,06,11,16,17,22.30
2009,06,11,16,18,22.30
2009,06,11,16,19,22.30
2009,06,11,16,20,22.40
2009,06,11,16,21,22.60
2009,06,11,16,22,22.60
2009,06,11,16,23,22.70
2009,06,11,16,24,22.80
2009,06,11,16,25,22.90
2009,06,11,16,26,23.00
2009,06,11,16,27,23.20
2009,06,11,16,28,23.20
2009,06,11,16,29,23.20
2009,06,11,16,30,23.10
2009,06,11,16,31,23.00
2009,06,11,16,32,23.00
2009,06,11,16,33,23.10
2009,06,11,16,34,23.20
2009,06,11,16,35,23.20
2009,06,11,16,36,23.20
2009,06,11,16,37,23.20
2009,06,11,16,38,23.20
2009,06,11,16,39,23.30
2009,06,11,16,40,23.20
2009,06,11,16,41,23.20
2009,06,11,16,42,23.20
2009,06,11,16,43,23.30
2009,06,11,16,44,23.30
2009,06,11,16,45,23.30
2009,06,11,16,46,23.30
2009,06,11,16,47,23.40
2009,06,11,16,48,23.40
2009,06,11,16,49,23.40
2009,06,11,16,50,23.40
2009,06,11,16,51,23.30
2009,06,11,16,52,23.20
2009,06,11,16,53,23.20
2009,06,11,16,54,23.10
2009,06,11,16,55,23.10
2009,06,11,16,56,23.10
2009,06,11,16,57,23.10
2009,06,11,16,58,23.20
2009,06,11,16,59,23.20
2009,06,11,17,00,23.30
2009,06,11,17,01,23.40
2009,06,11,17,02,23.50
2009,06,11,17,03,23.60
2009,06,11,17,04,23.70
2009,06,11,17,05,23.80
2009,06,11,17,06,23.80
2009,06,11,17,07,23.80
2009,06,11,17,08,23.80
2009,06,11,17,09,23.90
2009,06,11,17,10,23.80
2009,06,11,17,11,23.60
2009,06,11,17,12,23.50
2009,06,11,17,13,23.50
2009,06,11,17,14,23.60
2009,06,11,17,15,23.80
2009,06,11,17,16,23.90
2009,06,11,17,17,24.00
2009,06,11,17,18,24.10
2009,06,11,17,19,24.20
2009,06,11,17,20,24.20
2009,06,11,17,21,24.00
2009,06,11,17,22,23.90